Linton Municipal Airport, ND

10:17 AM CST on November 21, 2017 (GMT -0600)
Linton Municipal Airport

Weather History for K7L2 - December, 2013

Change the Weather History Date:

Friday, December 6, 2013

  Actual Average (KBIS) Record (KBIS)
Temperature  
Mean Temperature -12 °F -  
Max Temperature -5 °F 28 °F 66 °F (1939)
Min Temperature -18 °F 6 °F -28 °F (1950)
Degree Days  
Heating Degree Days 76    
Moisture  
Dew Point -19 °F    
Average Humidity 75    
Maximum Humidity 84    
Minimum Humidity 65    
Precipitation  
Precipitation 0.00 in - - ()
Sea Level Pressure  
Sea Level Pressure 30.50 in    
Wind  
Wind Speed 10 mph (West)    
Max Wind Speed 15 mph    
Max Gust Speed 20 mph    
Visibility 10 miles    
Events      
Averages and records for this station are not official NWS values.
T = Trace of Precipitation, MM = Missing Value Source: NWS Daily Summary

Daily Weather History Graph

Daily Weather History Graph

Search for Another Location

Airport or City:

Trip Planner

Search our weather history database for the weather conditions in past years. The results will help you decide how hot, cold, wet, or windy it might be!

Date:

Astronomy

Dec. 06, 2013 Rise Set
Actual Time 8:09 AM CST 4:55 PM CST
Civil Twilight 7:34 AM CST 5:29 PM CST
Nautical Twilight 6:56 AM CST 6:07 PM CST
Astronomical Twilight 6:20 AM CST 6:43 PM CST
Moon 11:07 AM CST (12/6) 9:38 PM CST (12/6)
Length of Visible Light 9h 54m
Length of Day
8h 46m
Waxing Crescent, 19% of the Moon is Illuminated
Dec 6
Waxing Crescent
Dec 9
First Quarter
Dec 17
Full
Dec 25
Last Quarter
Jan 1
New

Hourly Weather History & Observations

Time (CST) Temp. Windchill Dew Point Humidity Pressure Visibility Wind Dir Wind Speed Gust Speed Precip Events Conditions
12:15 AM -13.0 °F -30.0 °F -18.4 °F 77% 30.36 in 10.0 mi West 8.1 mph - N/A   Clear
5:35 AM -16.6 °F -36.8 °F -20.2 °F 84% 30.41 in 10.0 mi WNW 10.4 mph - N/A   Clear
5:55 AM -16.6 °F -37.9 °F -22.0 °F 76% 30.41 in 10.0 mi West 11.5 mph - N/A   Clear
6:15 AM -14.8 °F -36.6 °F -20.2 °F 77% 30.42 in 10.0 mi West 12.7 mph - N/A   Clear
6:35 AM -14.8 °F -36.6 °F -20.2 °F 77% 30.43 in 10.0 mi West 12.7 mph - N/A   Clear
6:55 AM -16.6 °F -37.9 °F -20.2 °F 84% 30.44 in 10.0 mi West 11.5 mph - N/A   Clear
7:15 AM -16.6 °F -35.7 °F -20.2 °F 84% 30.44 in 10.0 mi West 9.2 mph - N/A   Clear
7:35 AM -16.6 °F -34.4 °F -22.0 °F 76% 30.45 in 10.0 mi West 8.1 mph - N/A   Clear
7:55 AM -18.4 °F -33.4 °F -23.8 °F 76% 30.46 in 10.0 mi WSW 5.8 mph - N/A   Clear
8:15 AM -18.4 °F -37.9 °F -22.0 °F 84% 30.46 in 10.0 mi West 9.2 mph - N/A   Clear
8:35 AM -18.4 °F -39.1 °F -22.0 °F 84% 30.47 in 10.0 mi West 10.4 mph - N/A   Partly Cloudy
8:55 AM -18.4 °F - -22.0 °F 84% 30.48 in 10.0 mi Calm Calm - N/A   Mostly Cloudy
9:15 AM -16.6 °F -31.3 °F -20.2 °F 84% 30.48 in 10.0 mi WNW 5.8 mph - N/A   Overcast
9:35 AM -13.0 °F -31.3 °F -18.4 °F 77% 30.49 in 10.0 mi WNW 9.2 mph - N/A   Overcast
9:55 AM -13.0 °F -30.0 °F -18.4 °F 77% 30.49 in 10.0 mi WNW 8.1 mph - N/A   Overcast
10:15 AM -11.2 °F -31.1 °F -18.4 °F 70% 30.50 in 10.0 mi WNW 11.5 mph - N/A   Overcast
10:35 AM -11.2 °F -29.0 °F -18.4 °F 70% 30.52 in 10.0 mi WNW 9.2 mph - N/A   Scattered Clouds
10:55 AM -11.2 °F -31.1 °F -18.4 °F 70% 30.52 in 10.0 mi WNW 11.5 mph - N/A   Partly Cloudy
11:15 AM -9.4 °F -29.8 °F -16.6 °F 71% 30.52 in 10.0 mi West 12.7 mph - N/A   Clear
11:35 AM -9.4 °F -28.9 °F -16.6 °F 71% 30.52 in 10.0 mi West 11.5 mph - N/A   Clear
11:55 AM -9.4 °F -30.6 °F -16.6 °F 71% 30.51 in 10.0 mi WNW 13.8 mph - N/A   Clear
12:15 PM -9.4 °F -30.6 °F -16.6 °F 71% 30.50 in 10.0 mi WNW 13.8 mph 19.6 mph N/A   Clear
12:35 PM -7.6 °F -29.1 °F -16.6 °F 65% 30.50 in 10.0 mi WNW 15.0 mph - N/A   Clear
12:55 PM -7.6 °F -28.3 °F -14.8 °F 71% 30.50 in 10.0 mi WNW 13.8 mph - N/A   Clear
1:15 PM -7.6 °F -28.3 °F -14.8 °F 71% 30.50 in 10.0 mi WNW 13.8 mph 17.3 mph N/A   Clear
1:35 PM -7.6 °F -28.3 °F -14.8 °F 71% 30.50 in 10.0 mi WNW 13.8 mph - N/A   Clear
1:55 PM -5.8 °F -26.8 °F -14.8 °F 65% 30.49 in 10.0 mi WNW 15.0 mph - N/A   Clear
2:15 PM -5.8 °F -26.8 °F -14.8 °F 65% 30.49 in 10.0 mi WNW 15.0 mph - N/A   Clear
2:35 PM -5.8 °F -26.0 °F -14.8 °F 65% 30.49 in 10.0 mi WNW 13.8 mph - N/A   Clear
2:55 PM -5.8 °F -25.2 °F -14.8 °F 65% 30.49 in 10.0 mi WNW 12.7 mph - N/A   Clear
3:15 PM -5.8 °F -24.4 °F -14.8 °F 65% 30.49 in 10.0 mi WNW 11.5 mph - N/A   Clear
3:35 PM -5.8 °F -22.4 °F -14.8 °F 65% 30.50 in 10.0 mi West 9.2 mph - N/A   Clear
3:55 PM -5.8 °F -23.4 °F -14.8 °F 65% 30.50 in 10.0 mi West 10.4 mph - N/A   Clear
4:15 PM -7.6 °F -23.4 °F -14.8 °F 71% 30.51 in 10.0 mi West 8.1 mph - N/A   Clear
4:35 PM -7.6 °F -20.6 °F -16.6 °F 65% 30.52 in 10.0 mi West 5.8 mph - N/A   Clear
5:55 PM -13.0 °F -31.3 °F -20.2 °F 70% 30.53 in 10.0 mi West 9.2 mph - N/A   Clear
6:15 PM -16.6 °F -35.7 °F -22.0 °F 76% 30.53 in 10.0 mi WSW 9.2 mph - N/A   Clear
6:35 PM -18.4 °F -36.6 °F -22.0 °F 84% 30.53 in 10.0 mi West 8.1 mph - N/A   Clear
6:55 PM -14.8 °F -30.8 °F -20.2 °F 77% 30.53 in 10.0 mi West 6.9 mph - N/A   Clear
7:15 PM -16.6 °F -32.9 °F -20.2 °F 84% 30.53 in 10.0 mi West 6.9 mph - N/A   Clear
7:35 PM -14.8 °F -24.8 °F -20.2 °F 77% 30.53 in 10.0 mi WNW 3.5 mph - N/A   Clear
7:55 PM -14.8 °F -29.1 °F -20.2 °F 77% 30.54 in 10.0 mi West 5.8 mph - N/A   Clear
8:15 PM -14.8 °F -32.2 °F -20.2 °F 77% 30.54 in 10.0 mi West 8.1 mph - N/A   Clear
8:35 PM -16.6 °F -34.4 °F -20.2 °F 84% 30.54 in 10.0 mi West 8.1 mph - N/A   Clear
8:55 PM -16.6 °F -29.3 °F -22.0 °F 76% 30.55 in 10.0 mi West 4.6 mph - N/A   Clear
9:15 PM -16.6 °F -32.9 °F -22.0 °F 76% 30.56 in 10.0 mi West 6.9 mph - N/A   Clear
9:35 PM -18.4 °F -31.4 °F -23.8 °F 76% 30.56 in 10.0 mi WSW 4.6 mph - N/A   Clear
9:55 PM -18.4 °F -35.1 °F -23.8 °F 76% 30.57 in 10.0 mi WSW 6.9 mph - N/A   Clear
10:15 PM -18.4 °F -36.6 °F -23.8 °F 76% 30.57 in 10.0 mi West 8.1 mph - N/A   Clear
10:35 PM -18.4 °F -36.6 °F -23.8 °F 76% 30.57 in 10.0 mi West 8.1 mph - N/A   Clear
10:55 PM -16.6 °F -31.3 °F -22.0 °F 76% 30.57 in 10.0 mi West 5.8 mph - N/A   Clear
11:15 PM -16.6 °F -32.9 °F -22.0 °F 76% 30.57 in 10.0 mi WNW 6.9 mph - N/A   Clear
11:35 PM -16.6 °F -31.3 °F -22.0 °F 76% 30.57 in 10.0 mi West 5.8 mph - N/A   Clear
11:55 PM -16.6 °F -35.7 °F -22.0 °F 76% 30.58 in 10.0 mi West 9.2 mph - N/A   Clear